Location: Dompnac
(44.5644°N, 4.1026°E)
Time: 17:27:46
(UTC+00:00)

Cosmos 1634 Rocket - Pass Details

Date: 26 January 2021
Orbit: 961 x 991 km, 82.9° (Epoch: 05 March)

Event Time Altitude Azimuth Distance (km) Brightness Sun altitude
Rises 17:11:44 0° 345° (NNW) 3,685 7.0 -5.3°
Reaches altitude 10° 17:14:22 10° 339° (NNW) 2,738 6.4 -5.8°
Maximum altitude 17:20:12 42° 271° (W) 1,365 5.5 -6.7°
Drops below altitude 10° 17:26:02 10° 202° (SSW) 2,738 7.0 -7.7°
Sets 17:28:41 0° 196° (SSW) 3,685 7.5 -8.2°
